,,Stat5,,Stat1,,Stat2,,Stat3,,Stat4,,Wind1,,Wind1,
time,status,PA1M_AVG,status,PR1M_SUM,status,RH1M_AVG,status,SR1M_AVG,status,TA1M_AVG,status,W1dAve1m,status,W1sAve1m,
2000-12-16, 00:00:01,VALID,918.387,VALID,0,VALID,98.5023,VALID,-0.0849042,VALID,19.7937,VALID,98,VALID,1.07257,
2000-12-16, 00:01:00,VALID,918.371,VALID,0,VALID,98.4273,VALID,-0.0849042,VALID,19.7681,VALID,93,VALID,1.36919,
2000-12-16, 00:02:00,VALID,918.37,VALID,0,VALID,98.3446,VALID,-0.0849042,VALID,19.7261,VALID,83,VALID,1.24079,
2000-12-16, 00:03:00,VALID,918.358,VALID,0,VALID,98.3256,VALID,-0.0679233,VALID,19.7034,VALID,84,VALID,1.43421,
2000-12-16, 00:04:01,VALID,918.364,VALID,0,VALID,98.2861,VALID,-0.0169808,VALID,19.6679,VALID,79,VALID,1.17279,
2000-12-16, 00:05:01,VALID,918.341,VALID,0,VALID,98.3319,VALID,0.0339617,VALID,19.654,VALID,88,VALID,1.90954,
2000-12-16, 00:06:00,VALID,918.33,VALID,0,VALID,98.4247,VALID,0,VALID,19.6674,VALID,83,VALID,0.839105,
2000-12-16, 00:07:00,VALID,918.338,VALID,0,VALID,98.4489,VALID,0.0339617,VALID,19.651,VALID,80,VALID,0.928454,
2000-12-16, 00:08:01,VALID,918.327,VALID,0,VALID,98.4629,VALID,0.0339617,VALID,19.6411,VALID,70,VALID,1.25918,
2000-12-16, 00:09:00,VALID,918.317,VALID,0,VALID,98.3993,VALID,0.0169808,VALID,19.5829,VALID,58,VALID,0.772615,
2000-12-16, 00:10:00,VALID,918.291,VALID,0,VALID,98.4489,VALID,0.0509425,VALID,19.5799,VALID,95,VALID,0.779848,
2000-12-16, 00:11:01,VALID,918.273,VALID,0,VALID,98.5455,VALID,0.0509425,VALID,19.6085,VALID,57,VALID,0.37685,
2000-12-16, 00:12:01,VALID,918.262,VALID,0,VALID,98.5354,VALID,0.0509425,VALID,19.5598,VALID,14,VALID,0.212723,
2000-12-16, 00:13:00,VALID,918.262,VALID,0,VALID,98.5761,VALID,0.0339617,VALID,19.5725,VALID,72,VALID,0.53125,
2000-12-16, 00:14:01,VALID,918.266,VALID,0,VALID,98.6613,VALID,0.0169808,VALID,19.6214,VALID,84,VALID,0.710938,
2000-12-16, 00:15:00,VALID,918.263,VALID,0,VALID,98.646,VALID,0.0339617,VALID,19.6152,VALID,79,VALID,0.241554,
2000-12-16, 00:16:00,VALID,918.253,VALID,0.2,VALID,98.6333,VALID,0.0169808,VALID,19.5924,VALID,97,VALID,0.474918,
2000-12-16, 00:17:00,VALID,918.256,VALID,0,VALID,98.6727,VALID,0.0169808,VALID,19.6214,VALID,99,VALID,0.213742,
2000-12-16, 00:18:01,VALID,918.255,VALID,0,VALID,98.6892,VALID,0,VALID,19.6279,VALID,86,VALID,0.75625,
2000-12-16, 00:19:00,VALID,918.266,VALID,0,VALID,98.693,VALID,0.0169808,VALID,19.6316,VALID,56,VALID,0.477148,
2000-12-16, 00:20:00,VALID,918.271,VALID,0,VALID,98.5405,VALID,0.0169808,VALID,19.521,VALID,54,VALID,0.525046,
2000-12-16, 00:21:00,VALID,918.272,VALID,0,VALID,98.5417,VALID,0.0509425,VALID,19.5114,VALID,92,VALID,1.11106,
2000-12-16, 00:22:01,VALID,918.26,VALID,0,VALID,98.6002,VALID,0.0679233,VALID,19.5409,VALID,91,VALID,1.26838,
2000-12-16, 00:23:00,VALID,918.251,VALID,0,VALID,98.5557,VALID,0.0339617,VALID,19.5084,VALID,72,VALID,1.23332,
2000-12-16, 00:24:00,VALID,918.238,VALID,0,VALID,98.4896,VALID,0.0169808,VALID,19.4639,VALID,71,VALID,0.637451,
2000-12-16, 00:25:00,VALID,918.23,VALID,0,VALID,98.4018,VALID,0.0509425,VALID,19.4082,VALID,349,VALID,0.428686,
2000-12-16, 00:26:00,VALID,918.217,VALID,0,VALID,98.3612,VALID,0.0509425,VALID,19.396,VALID,354,VALID,0.548884,
2000-12-16, 00:27:00,VALID,918.191,VALID,0,VALID,98.454,VALID,0,VALID,19.4015,VALID,73,VALID,0.459459,
2000-12-16, 00:28:00,VALID,918.17,VALID,0,VALID,98.5583,VALID,0.0169808,VALID,19.4629,VALID,89,VALID,1.12086,
2000-12-16, 00:29:00,VALID,918.177,VALID,0,VALID,98.5239,VALID,0.0339617,VALID,19.4666,VALID,75,VALID,1.15963,
2000-12-16, 00:30:00,VALID,918.154,VALID,0,VALID,98.4731,VALID,0.0339617,VALID,19.4447,VALID,96,VALID,1.12438,
2000-12-16, 00:31:00,VALID,918.155,VALID,0,VALID,98.4565,VALID,0.0509425,VALID,19.4278,VALID,93,VALID,1.11534,
2000-12-16, 00:32:00,VALID,918.149,VALID,0,VALID,98.4362,VALID,0,VALID,19.4152,VALID,83,VALID,1.16362,
2000-12-16, 00:33:00,VALID,918.147,VALID,0,VALID,98.2683,VALID,0.0169808,VALID,19.3506,VALID,68,VALID,1.46601,
2000-12-16, 00:34:01,VALID,918.137,VALID,0,VALID,98.1615,VALID,-0.0339617,VALID,19.2994,VALID,65,VALID,1.06664,
2000-12-16, 00:35:00,VALID,918.142,VALID,0,VALID,98.1424,VALID,-0.0679233,VALID,19.2844,VALID,63,VALID,1.12986,
2000-12-16, 00:36:00,VALID,918.135,VALID,0,VALID,98.173,VALID,-0.0849042,VALID,19.278,VALID,83,VALID,1.17432,
2000-12-16, 00:37:00,VALID,918.123,VALID,0,VALID,98.1424,VALID,-0.101885,VALID,19.2489,VALID,70,VALID,1.07492,
2000-12-16, 00:38:00,VALID,918.11,VALID,0,VALID,98.1602,VALID,-0.0679233,VALID,19.2389,VALID,83,VALID,0.823214,
2000-12-16, 00:39:00,VALID,918.089,VALID,0,VALID,98.1679,VALID,-0.0849042,VALID,19.2459,VALID,62,VALID,0.725929,
2000-12-16, 00:40:00,VALID,918.064,VALID,0,VALID,98.1819,VALID,-0.101885,VALID,19.2427,VALID,73,VALID,0.91682,
2000-12-16, 00:41:00,VALID,918.048,VALID,0,VALID,98.0916,VALID,-0.101885,VALID,19.23,VALID,90,VALID,1.55215,
2000-12-16, 00:42:01,VALID,918.034,VALID,0,VALID,98.1246,VALID,-0.0849042,VALID,19.236,VALID,94,VALID,1.07648,
2000-12-16, 00:43:01,VALID,918.029,VALID,0,VALID,98.1844,VALID,-0.101885,VALID,19.2491,VALID,92,VALID,0.738487,
2000-12-16, 00:44:00,VALID,918.008,VALID,0,VALID,98.1348,VALID,-0.101885,VALID,19.2464,VALID,86,VALID,1.43705,
2000-12-16, 00:45:00,VALID,917.998,VALID,0,VALID,98.1285,VALID,-0.0849042,VALID,19.2424,VALID,93,VALID,1.20756,
2000-12-16, 00:46:01,VALID,917.984,VALID,0,VALID,98.1577,VALID,-0.101885,VALID,19.2459,VALID,94,VALID,1.01907,
2000-12-16, 00:47:01,VALID,917.983,VALID,0,VALID,98.2009,VALID,-0.101885,VALID,19.2553,VALID,76,VALID,0.650127,
2000-12-16, 00:48:00,VALID,917.973,VALID,0,VALID,98.056,VALID,-0.0679233,VALID,19.2295,VALID,80,VALID,0.86377,
2000-12-16, 00:49:01,VALID,917.96,VALID,0,VALID,97.9326,VALID,-0.0169808,VALID,19.2293,VALID,80,VALID,1.13762,
2000-12-16, 00:50:01,VALID,917.98,VALID,0.2,VALID,97.8487,VALID,0,VALID,19.2444,VALID,81,VALID,1.14844,
2000-12-16, 00:51:00,VALID,917.978,VALID,0,VALID,97.574,VALID,0,VALID,19.2373,VALID,92,VALID,1.0984,
2000-12-16, 00:52:01,VALID,917.987,VALID,0,VALID,97.5206,VALID,0.0509425,VALID,19.2666,VALID,80,VALID,0.680607,
2000-12-16, 00:53:00,VALID,917.989,VALID,0,VALID,97.3655,VALID,0,VALID,19.2703,VALID,71,VALID,0.502111,
2000-12-16, 00:54:01,VALID,917.986,VALID,0,VALID,97.349,VALID,0.0169808,VALID,19.2772,VALID,73,VALID,0.461554,
2000-12-16, 00:55:01,VALID,917.998,VALID,0,VALID,97.3744,VALID,0,VALID,19.2738,VALID,95,VALID,0.742393,
2000-12-16, 00:56:01,VALID,917.984,VALID,0,VALID,97.2714,VALID,0,VALID,19.2604,VALID,77,VALID,0.771875,
2000-12-16, 00:57:00,VALID,917.962,VALID,0,VALID,97.1544,VALID,0,VALID,19.2415,VALID,60,VALID,0.575169,
2000-12-16, 00:58:01,VALID,917.954,VALID,0,VALID,97.0819,VALID,0.0169808,VALID,19.2186,VALID,48,VALID,0.506893,
2000-12-16, 00:59:01,VALID,917.925,VALID,0,VALID,97.012,VALID,0,VALID,19.2191,VALID,10,VALID,0.17652,
2000-12-16, 01:00:01,VALID,917.912,VALID,0,VALID,97.1239,VALID,0.0169808,VALID,19.235,VALID,18,VALID,0.249023,
2000-12-16, 01:01:01,VALID,917.885,VALID,0,VALID,97.087,VALID,0,VALID,19.2283,VALID,313,VALID,0.194511,
2000-12-16, 01:02:01,VALID,917.874,VALID,0,VALID,96.9192,VALID,0,VALID,19.235,VALID,356,VALID,0.308705,
2000-12-16, 01:03:01,VALID,917.871,VALID,0,VALID,96.9179,VALID,0.0679233,VALID,19.2509,VALID,31,VALID,0.0625,
2000-12-16, 01:04:01,VALID,917.85,VALID,0,VALID,96.9967,VALID,-0.0339617,VALID,19.2643,VALID,77,VALID,0,
2000-12-16, 01:05:01,VALID,917.841,VALID,0,VALID,97.0438,VALID,-0.0849042,VALID,19.2747,VALID,69,VALID,0,
2000-12-16, 01:06:01,VALID,917.845,VALID,0,VALID,97.1124,VALID,-0.0679233,VALID,19.268,VALID,63,VALID,0.465666,
2000-12-16, 01:07:01,VALID,917.856,VALID,0,VALID,96.7551,VALID,-0.0849042,VALID,19.2524,VALID,69,VALID,0.650288,
2000-12-16, 01:08:01,VALID,917.848,VALID,0,VALID,96.6865,VALID,-0.0679233,VALID,19.2588,VALID,91,VALID,0.761161,
2000-12-16, 01:09:01,VALID,917.856,VALID,0,VALID,96.7132,VALID,-0.0509425,VALID,19.262,VALID,69,VALID,0.431588,
2000-12-16, 01:10:01,VALID,917.858,VALID,0,VALID,96.6852,VALID,-0.101885,VALID,19.2558,VALID,53,VALID,0.306985,
2000-12-16, 01:11:01,VALID,917.851,VALID,0,VALID,96.352,VALID,-0.0849042,VALID,19.2424,VALID,31,VALID,0.460726,
2000-12-16, 01:12:01,VALID,917.843,VALID,0,VALID,96.0532,VALID,-0.0849042,VALID,19.2524,VALID,37,VALID,0.544678,
2000-12-16, 01:13:01,VALID,917.836,VALID,0,VALID,95.5802,VALID,-0.0849042,VALID,19.2717,VALID,46,VALID,0.615986,
2000-12-16, 01:14:01,VALID,917.862,VALID,0,VALID,95.6971,VALID,-0.101885,VALID,19.3015,VALID,53,VALID,0.0964286,
2000-12-16, 01:15:01,VALID,917.871,VALID,0,VALID,95.8307,VALID,-0.0849042,VALID,19.3011,VALID,53,VALID,0,
2000-12-16, 01:16:00,VALID,917.881,VALID,0,VALID,95.8981,VALID,-0.101885,VALID,19.311,VALID,53,VALID,0,
2000-12-16, 01:17:00,VALID,917.898,VALID,0,VALID,95.9082,VALID,-0.101885,VALID,19.2886,VALID,26,VALID,0.13239,
2000-12-16, 01:18:00,VALID,917.904,VALID,0,VALID,95.8459,VALID,-0.101885,VALID,19.2847,VALID,13,VALID,0.0583882,
2000-12-16, 01:19:00,VALID,917.916,VALID,0,VALID,95.8637,VALID,-0.101885,VALID,19.2685,VALID,14,VALID,0.00308388,
2000-12-16, 01:20:00,VALID,917.912,VALID,0,VALID,95.9871,VALID,-0.0509425,VALID,19.2692,VALID,33,VALID,0,
2000-12-16, 01:21:00,VALID,917.895,VALID,0,VALID,96.2821,VALID,-0.101885,VALID,19.2586,VALID,67,VALID,0,
2000-12-16, 01:22:00,VALID,917.875,VALID,0,VALID,96.5148,VALID,-0.0849042,VALID,19.2688,VALID,73,VALID,0,
2000-12-16, 01:23:00,VALID,917.857,VALID,0,VALID,96.6216,VALID,-0.0849042,VALID,19.2531,VALID,44,VALID,0,
2000-12-16, 01:24:00,VALID,917.841,VALID,0,VALID,96.6852,VALID,-0.101885,VALID,19.2367,VALID,44,VALID,0,
2000-12-16, 01:25:00,VALID,917.84,VALID,0,VALID,96.7869,VALID,-0.101885,VALID,19.2074,VALID,45,VALID,0,
2000-12-16, 01:26:00,VALID,917.834,VALID,0,VALID,96.9281,VALID,-0.0679233,VALID,19.2076,VALID,45,VALID,0,
2000-12-16, 01:27:00,VALID,917.824,VALID,0,VALID,97.2282,VALID,-0.101885,VALID,19.2335,VALID,72,VALID,0,
2000-12-16, 01:28:00,VALID,917.822,VALID,0,VALID,97.3528,VALID,-0.0849042,VALID,19.2208,VALID,87,VALID,0,
2000-12-16, 01:29:00,VALID,917.827,VALID,0,VALID,97.4291,VALID,-0.101885,VALID,19.1947,VALID,94,VALID,0,
2000-12-16, 01:30:00,VALID,917.845,VALID,0,VALID,97.5702,VALID,-0.101885,VALID,19.1887,VALID,101,VALID,0.336143,
2000-12-16, 01:31:00,VALID,917.848,VALID,0,VALID,97.719,VALID,-0.0849042,VALID,19.1885,VALID,98,VALID,0.71361,
2000-12-16, 01:32:00,VALID,917.866,VALID,0,VALID,97.8385,VALID,-0.0849042,VALID,19.1684,VALID,102,VALID,0.861384,
2000-12-16, 01:33:00,VALID,917.874,VALID,0,VALID,97.9046,VALID,-0.0679233,VALID,19.1693,VALID,93,VALID,1.02111,
2000-12-16, 01:34:00,VALID,917.89,VALID,0,VALID,97.8919,VALID,-0.101885,VALID,19.1497,VALID,86,VALID,0.950597,
2000-12-16, 01:35:00,VALID,917.885,VALID,0,VALID,97.7877,VALID,-0.101885,VALID,19.1268,VALID,85,VALID,1.07496,
2000-12-16, 01:36:00,VALID,917.916,VALID,0,VALID,97.7788,VALID,-0.101885,VALID,19.1268,VALID,85,VALID,1.00122,
2000-12-16, 01:37:00,VALID,917.927,VALID,0,VALID,97.7025,VALID,-0.101885,VALID,19.1109,VALID,87,VALID,0.989784,
2000-12-16, 01:38:00,VALID,917.946,VALID,0,VALID,97.6783,VALID,-0.0849042,VALID,19.1174,VALID,83,VALID,0.953795,
2000-12-16, 01:39:00,VALID,917.943,VALID,0,VALID,97.6325,VALID,-0.0849042,VALID,19.1114,VALID,83,VALID,1.21178,
2000-12-16, 01:40:00,VALID,917.951,VALID,0,VALID,97.5893,VALID,-0.0849042,VALID,19.0883,VALID,78,VALID,1.30377,
2000-12-16, 01:41:00,VALID,917.957,VALID,0,VALID,97.5588,VALID,-0.101885,VALID,19.0687,VALID,74,VALID,1.09818,
2000-12-16, 01:42:00,VALID,917.949,VALID,0,VALID,97.541,VALID,-0.0849042,VALID,19.0625,VALID,65,VALID,1.20744,
2000-12-16, 01:43:00,VALID,917.927,VALID,0,VALID,97.5092,VALID,-0.0849042,VALID,19.0364,VALID,77,VALID,0.842516,
2000-12-16, 01:44:00,VALID,917.912,VALID,0,VALID,97.6325,VALID,-0.101885,VALID,19.0498,VALID,91,VALID,0.702232,
2000-12-16, 01:45:00,VALID,917.893,VALID,0,VALID,97.6808,VALID,-0.101885,VALID,19.0272,VALID,92,VALID,0.790329,
2000-12-16, 01:46:00,VALID,917.872,VALID,0,VALID,97.7279,VALID,-0.101885,VALID,19.0309,VALID,89,VALID,1.17165,
2000-12-16, 01:47:00,VALID,917.838,VALID,0,VALID,97.7686,VALID,-0.101885,VALID,19.0177,VALID,89,VALID,1.35747,
2000-12-16, 01:48:00,VALID,917.834,VALID,0,VALID,97.8411,VALID,-0.101885,VALID,19.0274,VALID,85,VALID,1.29443,
2000-12-16, 01:49:00,VALID,917.806,VALID,0,VALID,97.8423,VALID,-0.0679233,VALID,19.0267,VALID,87,VALID,0.808894,
2000-12-16, 01:50:00,VALID,917.794,VALID,0,VALID,97.8525,VALID,0,VALID,19.0324,VALID,85,VALID,0.573884,
2000-12-16, 01:51:00,VALID,917.778,VALID,0,VALID,97.9199,VALID,-0.0169808,VALID,19.0255,VALID,90,VALID,0.754856,
2000-12-16, 01:52:00,VALID,917.755,VALID,0,VALID,97.9275,VALID,0,VALID,19.0093,VALID,84,VALID,1.02068,
2000-12-16, 01:53:00,VALID,917.746,VALID,0,VALID,97.869,VALID,0,VALID,18.9964,VALID,83,VALID,1.17082,
2000-12-16, 01:54:00,VALID,917.733,VALID,0,VALID,97.864,VALID,0.0169808,VALID,18.9964,VALID,89,VALID,0.90625,
2000-12-16, 01:55:00,VALID,917.729,VALID,0,VALID,97.822,VALID,0.0169808,VALID,19.0096,VALID,88,VALID,0.846423,
2000-12-16, 01:56:00,VALID,917.723,VALID,0,VALID,97.7648,VALID,0,VALID,19.0096,VALID,82,VALID,0.672768,
2000-12-16, 01:57:00,VALID,917.708,VALID,0,VALID,97.7165,VALID,0.0169808,VALID,19.0031,VALID,85,VALID,0.790541,
2000-12-16, 01:58:00,VALID,917.693,VALID,0,VALID,97.7355,VALID,0,VALID,19.0123,VALID,94,VALID,0.764017,
2000-12-16, 01:59:00,VALID,917.688,VALID,0,VALID,97.6338,VALID,0.0169808,VALID,19.019,VALID,94,VALID,0.986698,
2000-12-16, 02:00:00,VALID,917.688,VALID,0,VALID,97.5181,VALID,0,VALID,19.0421,VALID,93,VALID,0.887207,
2000-12-16, 02:01:00,VALID,917.685,VALID,0,VALID,97.5143,VALID,0,VALID,19.0543,VALID,95,VALID,0.705729,
2000-12-16, 02:02:00,VALID,917.674,VALID,0,VALID,97.3935,VALID,0,VALID,19.0677,VALID,92,VALID,0.60558,
2000-12-16, 02:03:00,VALID,917.656,VALID,0,VALID,97.2409,VALID,0.0169808,VALID,19.0541,VALID,92,VALID,0.751267,
2000-12-16, 02:04:00,VALID,917.644,VALID,0,VALID,97.1226,VALID,0.0509425,VALID,19.0712,VALID,92,VALID,0.569393,
2000-12-16, 02:05:00,VALID,917.605,VALID,0,VALID,97.2421,VALID,0.0169808,VALID,19.0966,VALID,99,VALID,0.409417,
2000-12-16, 02:06:00,VALID,917.575,VALID,0,VALID,97.2549,VALID,0,VALID,19.1127,VALID,93,VALID,0.365954,
2000-12-16, 02:07:00,VALID,917.558,VALID,0,VALID,97.1989,VALID,0.0169808,VALID,19.1028,VALID,96,VALID,0.494449,
2000-12-16, 02:08:00,VALID,917.557,VALID,0,VALID,97.1786,VALID,0,VALID,19.106,VALID,77,VALID,0.64933,
2000-12-16, 02:09:00,VALID,917.544,VALID,0,VALID,97.0565,VALID,0,VALID,19.1035,VALID,79,VALID,0.635135,
2000-12-16, 02:10:00,VALID,917.557,VALID,0,VALID,97.0603,VALID,0,VALID,19.1003,VALID,96,VALID,0.396369,
2000-12-16, 02:11:00,VALID,917.563,VALID,0,VALID,96.9738,VALID,0.0169808,VALID,19.0834,VALID,80,VALID,0.648438,
2000-12-16, 02:12:00,VALID,917.556,VALID,0,VALID,96.8874,VALID,0.0339617,VALID,19.0841,VALID,81,VALID,0.472168,
2000-12-16, 02:13:00,VALID,917.562,VALID,0,VALID,96.8746,VALID,0.0169808,VALID,19.0839,VALID,81,VALID,0.314103,
2000-12-16, 02:14:00,VALID,917.543,VALID,0,VALID,96.9192,VALID,0,VALID,19.0809,VALID,81,VALID,0.192188,
2000-12-16, 02:15:00,VALID,917.541,VALID,0,VALID,96.9331,VALID,0,VALID,19.0737,VALID,81,VALID,0.122677,
2000-12-16, 02:16:00,VALID,917.523,VALID,0,VALID,97.04,VALID,0,VALID,19.0943,VALID,81,VALID,0.263097,
2000-12-16, 02:17:00,VALID,917.517,VALID,0,VALID,97.0565,VALID,0,VALID,19.0901,VALID,80,VALID,0.102829,
2000-12-16, 02:18:00,VALID,917.519,VALID,0,VALID,96.9955,VALID,0.0339617,VALID,19.0936,VALID,51,VALID,0.255757,
2000-12-16, 02:19:00,VALID,917.506,VALID,0,VALID,96.9382,VALID,0.0169808,VALID,19.0938,VALID,318,VALID,0.589021,
2000-12-16, 02:20:00,VALID,917.499,VALID,0,VALID,96.8607,VALID,0.0169808,VALID,19.0869,VALID,322,VALID,0.616964,
2000-12-16, 02:21:00,VALID,917.485,VALID,0,VALID,96.9179,VALID,-0.0169808,VALID,19.0675,VALID,325,VALID,0.336384,
2000-12-16, 02:22:00,VALID,917.471,VALID,0,VALID,96.9726,VALID,-0.0169808,VALID,19.061,VALID,325,VALID,0.121553,
2000-12-16, 02:23:00,VALID,917.454,VALID,0,VALID,97.0921,VALID,0,VALID,19.0483,VALID,325,VALID,0.00105574,
2000-12-16, 02:24:00,VALID,917.449,VALID,0,VALID,97.1506,VALID,-0.0169808,VALID,19.0615,VALID,325,VALID,0,
2000-12-16, 02:25:00,VALID,917.429,VALID,0,VALID,97.1608,VALID,0,VALID,19.0483,VALID,325,VALID,0,
2000-12-16, 02:26:00,VALID,917.426,VALID,0,VALID,97.1684,VALID,0,VALID,19.0682,VALID,323,VALID,0,
2000-12-16, 02:27:00,VALID,917.438,VALID,0,VALID,97.148,VALID,0,VALID,19.0774,VALID,319,VALID,0,
2000-12-16, 02:28:00,VALID,917.445,VALID,0,VALID,97.143,VALID,0.0169808,VALID,19.0839,VALID,311,VALID,0,
2000-12-16, 02:29:00,VALID,917.465,VALID,0,VALID,97.1048,VALID,-0.0169808,VALID,19.0996,VALID,309,VALID,0,
2000-12-16, 02:30:00,VALID,917.466,VALID,0,VALID,97.1163,VALID,0,VALID,19.1067,VALID,309,VALID,0,
2000-12-16, 02:31:00,VALID,917.485,VALID,0,VALID,97.1302,VALID,0,VALID,19.1092,VALID,309,VALID,0,
2000-12-16, 02:32:00,VALID,917.493,VALID,0,VALID,97.1684,VALID,0,VALID,19.1229,VALID,309,VALID,0,
2000-12-16, 02:33:00,VALID,917.502,VALID,0,VALID,97.0997,VALID,-0.0169808,VALID,19.1097,VALID,309,VALID,0,
2000-12-16, 02:34:00,VALID,917.503,VALID,0,VALID,97.176,VALID,0,VALID,19.1134,VALID,309,VALID,0,
2000-12-16, 02:35:00,VALID,917.502,VALID,0,VALID,97.3032,VALID,-0.0509425,VALID,19.1167,VALID,309,VALID,0,
2000-12-16, 02:36:00,VALID,917.519,VALID,0,VALID,97.485,VALID,-0.0339617,VALID,19.1321,VALID,309,VALID,0,
2000-12-16, 02:37:00,VALID,917.524,VALID,0,VALID,97.5435,VALID,-0.0169808,VALID,19.1455,VALID,309,VALID,0,
2000-12-16, 02:38:00,VALID,917.518,VALID,0,VALID,97.3642,VALID,0.0169808,VALID,19.1192,VALID,254,VALID,0,
2000-12-16, 02:39:00,VALID,917.527,VALID,0,VALID,97.3108,VALID,0,VALID,19.0802,VALID,228,VALID,0,
2000-12-16, 02:40:00,VALID,917.519,VALID,0,VALID,97.2739,VALID,0.0169808,VALID,19.0682,VALID,228,VALID,0,
2000-12-16, 02:41:00,VALID,917.512,VALID,0,VALID,97.4062,VALID,-0.0169808,VALID,19.058,VALID,228,VALID,0,
2000-12-16, 02:42:00,VALID,917.505,VALID,0,VALID,97.5054,VALID,0,VALID,19.0772,VALID,228,VALID,0,
2000-12-16, 02:43:00,VALID,917.512,VALID,0,VALID,97.5321,VALID,0,VALID,19.0938,VALID,227,VALID,0,
2000-12-16, 02:44:00,VALID,917.508,VALID,0,VALID,97.5588,VALID,-0.0169808,VALID,19.0804,VALID,224,VALID,0,
2000-12-16, 02:45:00,VALID,917.504,VALID,0,VALID,97.4469,VALID,-0.0169808,VALID,19.0774,VALID,208,VALID,0,
2000-12-16, 02:46:00,VALID,917.495,VALID,0,VALID,97.2561,VALID,-0.0169808,VALID,19.0357,VALID,191,VALID,0,
2000-12-16, 02:47:00,VALID,917.503,VALID,0,VALID,97.2638,VALID,-0.0169808,VALID,18.9964,VALID,191,VALID,0,
2000-12-16, 02:48:00,VALID,917.508,VALID,0,VALID,97.4202,VALID,0,VALID,18.984,VALID,191,VALID,0,
2000-12-16, 02:49:00,VALID,917.52,VALID,0,VALID,97.5867,VALID,-0.0169808,VALID,18.9708,VALID,191,VALID,0,
2000-12-16, 02:50:00,VALID,917.516,VALID,0,VALID,97.6859,VALID,-0.101885,VALID,18.9752,VALID,191,VALID,0,
2000-12-16, 02:51:00,VALID,917.53,VALID,0,VALID,97.7622,VALID,-0.101885,VALID,18.9715,VALID,234,VALID,0,
2000-12-16, 02:52:00,VALID,917.531,VALID,0,VALID,97.8347,VALID,-0.135847,VALID,18.9951,VALID,238,VALID,0,
2000-12-16, 02:53:00,VALID,917.532,VALID,0,VALID,97.8881,VALID,-0.101885,VALID,18.9979,VALID,238,VALID,0,
2000-12-16, 02:54:00,VALID,917.528,VALID,0,VALID,97.9657,VALID,-0.101885,VALID,19.0175,VALID,251,VALID,0,
2000-12-16, 02:55:00,VALID,917.524,VALID,0,VALID,97.9619,VALID,-0.101885,VALID,19.0175,VALID,265,VALID,0,
2000-12-16, 02:56:00,VALID,917.533,VALID,0,VALID,97.9288,VALID,-0.101885,VALID,19.0043,VALID,274,VALID,0,
2000-12-16, 02:57:00,VALID,917.519,VALID,0,VALID,97.9631,VALID,-0.101885,VALID,19.0078,VALID,274,VALID,0,
2000-12-16, 02:58:00,VALID,917.52,VALID,0,VALID,97.9809,VALID,-0.118866,VALID,19.008,VALID,274,VALID,0,
2000-12-16, 02:59:00,VALID,917.524,VALID,0,VALID,97.9911,VALID,-0.135847,VALID,19.0018,VALID,274,VALID,0,
2000-12-16, 03:00:00,VALID,917.519,VALID,0,VALID,98.0089,VALID,-0.118866,VALID,19.0085,VALID,274,VALID,0,
2000-12-16, 03:01:00,VALID,917.523,VALID,0,VALID,98.014,VALID,-0.118866,VALID,18.9983,VALID,273,VALID,0,
2000-12-16, 03:02:00,VALID,917.53,VALID,0,VALID,98.0369,VALID,-0.118866,VALID,19.0115,VALID,273,VALID,0,
2000-12-16, 03:03:00,VALID,917.541,VALID,0,VALID,98.0687,VALID,-0.0849042,VALID,19.0011,VALID,273,VALID,0,
2000-12-16, 03:04:00,VALID,917.54,VALID,0,VALID,98.0623,VALID,-0.101885,VALID,19.0108,VALID,273,VALID,0,
2000-12-16, 03:05:00,VALID,917.545,VALID,0,VALID,98.0611,VALID,0,VALID,18.9865,VALID,269,VALID,0,
2000-12-16, 03:06:00,VALID,917.563,VALID,0,VALID,98.1132,VALID,0.0169808,VALID,19.0064,VALID,268,VALID,0,
2000-12-16, 03:07:00,VALID,917.561,VALID,0,VALID,98.1323,VALID,-0.0169808,VALID,19.0064,VALID,268,VALID,0,
2000-12-16, 03:08:00,VALID,917.573,VALID,0,VALID,98.1513,VALID,-0.0169808,VALID,18.9964,VALID,268,VALID,0,
2000-12-16, 03:09:00,VALID,917.581,VALID,0,VALID,98.1869,VALID,0,VALID,19.0165,VALID,268,VALID,0,
2000-12-16, 03:10:00,VALID,917.592,VALID,0,VALID,98.2009,VALID,-0.0169808,VALID,19.0265,VALID,268,VALID,0,
2000-12-16, 03:11:00,VALID,917.594,VALID,0,VALID,98.2365,VALID,-0.0169808,VALID,19.023,VALID,268,VALID,0,
2000-12-16, 03:12:00,VALID,917.592,VALID,0,VALID,98.2899,VALID,-0.0169808,VALID,19.0389,VALID,268,VALID,0,
2000-12-16, 03:13:00,VALID,917.576,VALID,0,VALID,98.2925,VALID,-0.0339617,VALID,19.0483,VALID,268,VALID,0,
2000-12-16, 03:14:00,VALID,917.572,VALID,0,VALID,98.2836,VALID,-0.0339617,VALID,19.0553,VALID,268,VALID,0,
2000-12-16, 03:15:00,VALID,917.565,VALID,0,VALID,98.2798,VALID,0,VALID,19.0553,VALID,268,VALID,0,
2000-12-16, 03:16:00,VALID,917.562,VALID,0,VALID,98.3065,VALID,-0.0169808,VALID,19.0643,VALID,268,VALID,0,
2000-12-16, 03:17:00,VALID,917.563,VALID,0,VALID,98.3192,VALID,0,VALID,19.0807,VALID,268,VALID,0,
2000-12-16, 03:18:00,VALID,917.555,VALID,0,VALID,98.3306,VALID,0,VALID,19.0938,VALID,268,VALID,0,
2000-12-16, 03:19:00,VALID,917.545,VALID,0,VALID,98.3192,VALID,-0.0169808,VALID,19.0869,VALID,268,VALID,0,
2000-12-16, 03:20:00,VALID,917.547,VALID,0,VALID,98.2989,VALID,-0.0509425,VALID,19.0811,VALID,268,VALID,0,
2000-12-16, 03:21:00,VALID,917.536,VALID,0,VALID,98.2518,VALID,0,VALID,19.0714,VALID,268,VALID,0,
2000-12-16, 03:22:00,VALID,917.54,VALID,0,VALID,98.1819,VALID,-0.0169808,VALID,19.0421,VALID,274,VALID,0,
2000-12-16, 03:23:00,VALID,917.537,VALID,0,VALID,98.192,VALID,0,VALID,19.055,VALID,276,VALID,0,
2000-12-16, 03:24:00,VALID,917.541,VALID,0,VALID,98.1501,VALID,-0.0169808,VALID,19.0618,VALID,319,VALID,0,
2000-12-16, 03:25:00,VALID,917.534,VALID,0,VALID,98.1348,VALID,-0.0339617,VALID,19.0521,VALID,101,VALID,0,
2000-12-16, 03:26:00,VALID,917.52,VALID,0,VALID,98.0827,VALID,-0.0509425,VALID,19.02,VALID,92,VALID,0,
2000-12-16, 03:27:00,VALID,917.527,VALID,0,VALID,98.0852,VALID,-0.0339617,VALID,19.0036,VALID,93,VALID,0,
2000-12-16, 03:28:00,VALID,917.523,VALID,0,VALID,98.0789,VALID,-0.0169808,VALID,18.9909,VALID,95,VALID,0,
2000-12-16, 03:29:00,VALID,917.527,VALID,0,VALID,98.1068,VALID,0,VALID,18.987,VALID,93,VALID,0,
2000-12-16, 03:30:00,VALID,917.527,VALID,0,VALID,98.1475,VALID,-0.0339617,VALID,18.9835,VALID,99,VALID,0,
2000-12-16, 03:31:00,VALID,917.532,VALID,0,VALID,98.2073,VALID,-0.0339617,VALID,19.0034,VALID,103,VALID,0,
2000-12-16, 03:32:00,VALID,917.53,VALID,0,VALID,98.2594,VALID,-0.0679233,VALID,19.0096,VALID,94,VALID,0,
2000-12-16, 03:33:00,VALID,917.536,VALID,0,VALID,98.2302,VALID,-0.0679233,VALID,19.0036,VALID,89,VALID,0.626056,
2000-12-16, 03:34:00,VALID,917.537,VALID,0,VALID,98.2429,VALID,-0.0339617,VALID,18.9937,VALID,81,VALID,0.81273,
2000-12-16, 03:35:00,VALID,917.561,VALID,0,VALID,98.2162,VALID,0.0339617,VALID,18.9634,VALID,66,VALID,0.450802,
2000-12-16, 03:36:00,VALID,917.571,VALID,0,VALID,98.2353,VALID,0.0509425,VALID,18.9475,VALID,74,VALID,0.388184,
2000-12-16, 03:37:00,VALID,917.595,VALID,0,VALID,98.2938,VALID,0.0169808,VALID,18.9607,VALID,72,VALID,0.0348558,
2000-12-16, 03:38:00,VALID,917.596,VALID,0,VALID,98.3332,VALID,0.0169808,VALID,18.9703,VALID,60,VALID,0.0973214,